DELTA 1 DEB, 10711

Orbit data source: Space-Track

DELTA 1 DEB, 10711 is space debris in SSO originally from a launch on Thu, 29 Jul 1976 UTC launched from the Air Force Western Test Range (AFWTR). Debris objects in space refer to the collection of defunct objects orbiting the Earth. Examples of debris include non-operational satellites, rocket bodies, and fragments generated from explosions, collisions, or faulty payload assembly.

Loading next visibility...
Identifier
10711, 1976-077AG
Orbit
SSO
Country
Flag of USUS
Related business
Manufacturer
Unknown
Mission
Spacecraft
Bus & Motor
Unknown
Mass
Unknown
Launch date (UTC)
1976-07-29 (50 years ago)
Launch vehicle
Unknown
Launch site
Air Force Western Test Range (AFWTR)
Object type
Payload
Rocket body
Debris
Shape & HBR
Unknown shape, 0.1 m
Radar Cross Section
Small (<0.1 m²)

Expand to show TLE details & history
Last TLE update: 18 hours ago

TLE from 18 hours ago
0 DELTA 1 DEB
1 10711U 76077AG  26062.43557802 -.00000046  00000-0  22286-5 0  9993
2 10711 102.4827  46.5942 0063332 264.7695 249.4392 12.29245052225736
Epoch: 2026-03-03T10:27Z
TLE epoch observation values (Epoch: 2026-03-03T10:27:13.940Z)
Latitude
25.82868°
Longitude
-85.30715°
Altitude
1,573.231 km
Speed
7.076 km/s
True Right ascension
15h 30m 51s
True Declination
25° 42' 28"
Sunlit
Object was in daylight at epoch
Visualization orbit readout
Latitude
Unknown
Longitude
Unknown
Altitude
Unknown
Speed
Unknown
Apparent Right ascension
Unknown
Apparent Declination
Unknown
Sunlit
N/A
Visualization observer readout
Local Sidereal Time
08:27:04
Azimuth
Unknown
Elevation
Unknown
Doppler factor
Unknown
Orbital elements
Apogee altitude
1,600.356 km
Perigee altitude
1,499.933 km
Semi-major axis
7,928.281 km
Eccentricity
0.00633
Inclination
102.4827°
RAAN
46.5942°
Arg. of periapsis
264.7695°
True anomaly
248.7616°
Mean anomaly
249.4392°
Eccentric anomaly
249.10021°
Mean motion
3.0745 °/min
Orbital period
117.09 mins
BSTAR
0.0000022286
Loading maneuver chart data...
Computing Atmospheric mass density...
Loading historical data...
Loading historical data...
Loading historical data...
Loading historical data...
Loading historical data...
Loading historical data...
Loading historical data...

Documentation

Showing up to 5 results
|